User: anonymous   Login
Location: Unspecified
(0.0000°N, 0.0000°E)
Time: 17:25:56
(UTC+00:00)
Language:

SICH 2 - Orbit

View from above orbital plane
View from above orbital plane
View from above satellite
View from above satellite

Ground track
Ground track

The orbit data is extracted from the following two-line orbital elements,

1 37794U 11044G   18115.76577562 +.00000059 +00000-0 +20959-4 0  9994
2 37794 098.0374 189.1504 0012312 201.5223 308.0780 14.61765862356618
Epoch (UTC): 25 April 2018 18:22:43
Eccentricity: 0.0012312
inclination: 98.0374°
perigee height: 679 km
apogee height: 696 km
right ascension of ascending node: 189.1504°
argument of perigee: 201.5223°
revolutions per day: 14.61765862
mean anomaly at epoch: 308.0780°
orbit number at epoch: 35661

The dashed part of the orbit path shows where the satellite is in the earth's shadow,  

DLR